Lexington Weather

Lexington, Massachusetts, USA

40°F
4/22/2024 7:55am 
  • Lexington Conditions: Clear
  • Temperature: 40.1°F / 4.5°CWarmer 3.1°F than last hour.
  • Dew Point: 28.9°F 
  • Relative Humidity: 64%Decreased 8.0% since last hour.
  • Wind: Calm, 10-min avg: Calm, gust: 2 mph
  • Barometer: 29.95 inRising 0.02  inHg/hr Rising Slowly
  • Visibility: 10 miles
  • Rain Today: 0.00 in
  •   

Regional Weather Roundup
for Boston, MA

        
000
ASUS41 KBOX 200210
RWRBOX

REGIONAL WEATHER ROUNDUP
NATIONAL WEATHER SERVICE BOSTON/NORTON MA
1000 PM EDT FRI APR 19 2024

NOTE:  "FAIR" INDICATES FEW OR NO CLOUDS BELOW 12,000 FEET WITH NO 
SIGNIFICANT WEATHER AND/OR OBSTRUCTIONS TO VISIBILITY.

MAZALL-200300-
EASTERN MASSACHUSETTS
  
CITY           SKY/WX    TMP DP  RH WIND       PRES   REMARKS
BOSTON         CLOUDY    49  34  56 S13       30.09S                  
BEVERLY        CLOUDY    49  36  61 S12       30.07S                  
LAWRENCE       CLOUDY    50  33  52 SW13G20   30.08S                  
BEDFORD        CLOUDY    49  32  52 S10       30.07S                  
NORWOOD        CLOUDY    51  34  52 S7        30.09S                  
MARSHFIELD     MOCLDY    48  37  66 SW6       30.09S                  
PLYMOUTH       CLEAR     47  38  71 SW3       30.09S                  
TAUNTON        CLEAR     49  36  61 CALM      30.10S                  
NEW BEDFORD    CLEAR     48  38  68 S8        30.09F                  
$$

MAZALL-200300-
CAPE COD AND THE ISLANDS
  
CITY           SKY/WX    TMP DP  RH WIND       PRES   REMARKS
FALMOUTH       CLEAR     46  39  76 S8        30.10                   
HYANNIS        CLEAR     45  39  79 SE5       30.09F                  
CHATHAM        CLEAR     45  39  79 S6        30.11S                  
PROVINCETOWN   PTCLDY    46  40  79 S8        30.11F                  
NANTUCKET      CLEAR     43  39  86 SE9       30.10S                  
MARTHAS VNYRD  PTCLDY    46  41  82 SE8       30.09F                  
$$
 
MAZALL-200300-
CENTRAL AND WESTERN MASSACHUSETTS
  
CITY           SKY/WX    TMP DP  RH WIND       PRES   REMARKS
WORCESTER      CLOUDY    47  34  60 S12G18    30.05F                  
FITCHBURG      CLOUDY    51  32  48 S10G17    30.06F                  
ORANGE         CLOUDY    50  33  52 S8        30.05F                  
SPRINGFIELD    NOT AVBL                                               
WESTFIELD      CLOUDY    50  40  68 S10       30.05F                  
NORTH ADAMS    CLOUDY    53  39  59 N6        30.00S                  
PITTSFIELD     CLOUDY    48  39  71 MISG      30.00F                  
$$
 
RIZALL-200300-
RHODE ISLAND
  
CITY           SKY/WX    TMP DP  RH WIND       PRES   REMARKS
PROVIDENCE     MOCLDY    45  41  86 S6        30.11S                  
NEWPORT        CLEAR     44  40  85 SE5       30.10S                  
BLOCK ISLAND   PTCLDY    43  41  93 SE7       30.10S                  
SMITHFIELD     MOCLDY    45  40  82 VRB6      30.09S                  
WESTERLY       CLOUDY    45  41  86 CALM      30.10S                  
$$
 
CTZALL-200300-
CONNECTICUT
  
CITY           SKY/WX    TMP DP  RH WIND       PRES   REMARKS
BRADLEY INTL   CLOUDY    51  41  68 S12       30.06F                  
HARTFORD       CLOUDY    48  42  80 S10       30.07S                  
PLAINVILLE     CLOUDY    48  44  86 S12       30.07S                  
BRIDGEPORT     CLOUDY    49  43  80 SE8       30.08S                  
DANBURY        CLOUDY    50  43  77 S6        30.07F                  
GROTON         CLOUDY    47  43  86 SE5       30.09F                  
NEW HAVEN      CLOUDY    50  45  83 SE7       30.08F                  
CHESTER        CLOUDY    46  45  93 VRB3      30.09S                  
MERIDEN        CLOUDY    48  41  76 S7        30.08F                  
WILLIMANTIC    CLOUDY    47  38  71 SE5       30.10F                  
OXFORD         CLOUDY    46  43  89 S7        30.07F                  
$$

MEZ002-015-021-024-NHZ003-005-008-011-012-014-VTZ005-008-200300-
NORTHERN NEW ENGLAND
  
CITY           SKY/WX    TMP DP  RH WIND       PRES   REMARKS
PORTLAND ME    CLOUDY    47  38  71 S13G30    30.07S                  
BANGOR ME      CLOUDY    45  38  76 S15       30.04F                  
CONCORD NH     CLOUDY    51  33  50 S13       30.02F                  
MANCHESTER NH  CLOUDY    52  32  46 S14G22    30.03S                  
NASHUA NH      CLOUDY    51  33  50 VRB6      30.06S                  
PORTSMOUTH NH  CLOUDY    50  36  59 S10       30.05F                  
JAFFREY NH     CLOUDY    50  30  46 S14G21    30.03F                  
KEENE NH       CLOUDY    51  30  44 S10       30.03S                  
BURLINGTON VT  CLOUDY    55  42  61 S17G30    29.90R                  
MT. WASHINGTON FOG       32  32 100 W46G58      N/A  VSB 0   WCI  15  
$$

NYZ052-076-200300-
EASTERN NEW YORK
  
CITY           SKY/WX    TMP DP  RH WIND       PRES   REMARKS
ALBANY         CLOUDY    54  43  66 S20G30    29.99S                  
NEW YORK CITY  CLOUDY    49  42  77 SE7       30.07F                  
$$
 
ANZALL-200300-
MARINE OBSERVATIONS
  
STATION/POSITION TIME  TEMP    WIND        PRES    VSBY  WAVE
                       AIR SEA DIR/SP/G                  HT/PER
                 (UTC) (F)     (DEG/KT/KT) (MB)    (MI)  (FT/S)
BOSTON BUOY      0150   47     200/ 10/ 12 1018.8R         2/ 3
BUZZARDS BAY     0100   45     140/  9/ 10 1019.9R
NANTUCKET SOUND  0150   47 48  150/  8/ 10 1019.0S         1/ 3
MASS BAY-STELLWA 0004   47 45  170/ 16/ 17 1018.4F  1 7/8  2/ 4
ISLE OF SHOALS   0100   47     170/ 21/ 23 1017.8R
S OF BLOCK IS    0156      45                N/A           6/ 8
$$

......................KEY.........................
  SKY/WX - SKY CONDITION/PRESENT WEATHER
  TMP    - TEMPERATURE IN FAHRENHEIT
  DWPT   - DEWPOINT IN FAHRENHEIT
  RH     - RELATIVE HUMIDITY IN PERCENT
  WIND   - DIRECTION AND SPEED IN MPH
  PRES   - MEAN SEA LEVEL PRESSURE IN INCHES OF HG
  WCI    - WIND CHILL INDEX
  VSB    - VISIBILITY IN MILES
  HX     - HEAT INDEX
  TC     - TEMPERATURE IN CELSIUS
  VRB    - VARIABLE WIND DIRECTION
  N/A    - NOT AVAILABLE
  
      

Other recent Regional Weather Roundups

Mon Apr 22, 7:10am EDT

Mon Apr 22, 6:10am EDT

Mon Apr 22, 5:10am EDT

Mon Apr 22, 4:10am EDT

Mon Apr 22, 3:10am EDT

Mon Apr 22, 2:10am EDT

Mon Apr 22, 1:10am EDT

Mon Apr 22, 12:10am EDT

Sun Apr 21, 11:10pm EDT

Sun Apr 21, 10:10pm EDT

Sun Apr 21, 9:10pm EDT

Sun Apr 21, 8:10pm EDT

Sun Apr 21, 7:10pm EDT

Sun Apr 21, 6:10pm EDT

Sun Apr 21, 5:10pm EDT

Sun Apr 21, 4:10pm EDT

Sun Apr 21, 3:10pm EDT

Sun Apr 21, 2:10pm EDT

Sun Apr 21, 1:10pm EDT

Sun Apr 21, 12:10pm EDT

Sun Apr 21, 11:10am EDT

Sun Apr 21, 10:10am EDT

Sun Apr 21, 9:10am EDT

Sun Apr 21, 8:10am EDT

Sun Apr 21, 7:10am EDT

Sun Apr 21, 6:10am EDT

Sun Apr 21, 5:10am EDT

Sun Apr 21, 4:10am EDT

Sun Apr 21, 3:10am EDT

Sun Apr 21, 2:10am EDT

Sun Apr 21, 1:10am EDT

Sun Apr 21, 12:10am EDT

Sat Apr 20, 11:10pm EDT

Sat Apr 20, 10:10pm EDT

Sat Apr 20, 9:10pm EDT

Sat Apr 20, 8:10pm EDT

Sat Apr 20, 7:10pm EDT

Sat Apr 20, 6:10pm EDT

Sat Apr 20, 5:10pm EDT

Sat Apr 20, 4:10pm EDT

Sat Apr 20, 3:10pm EDT

Sat Apr 20, 2:10pm EDT

Sat Apr 20, 1:10pm EDT

Sat Apr 20, 12:10pm EDT

Sat Apr 20, 11:10am EDT

Sat Apr 20, 10:10am EDT

Sat Apr 20, 9:10am EDT

Sat Apr 20, 8:10am EDT

Sat Apr 20, 7:10am EDT

Sat Apr 20, 6:10am EDT

Sat Apr 20, 5:10am EDT

Sat Apr 20, 4:10am EDT

Sat Apr 20, 3:10am EDT

Sat Apr 20, 2:10am EDT

Sat Apr 20, 1:10am EDT

Sat Apr 20, 12:10am EDT

Fri Apr 19, 11:10pm EDT

Fri Apr 19, 9:10pm EDT

Fri Apr 19, 8:10pm EDT

Fri Apr 19, 7:10pm EDT

Fri Apr 19, 6:10pm EDT

Fri Apr 19, 5:10pm EDT

Fri Apr 19, 4:10pm EDT

Fri Apr 19, 3:10pm EDT

Fri Apr 19, 2:10pm EDT

Fri Apr 19, 1:10pm EDT

Fri Apr 19, 12:10pm EDT

Fri Apr 19, 11:10am EDT

Fri Apr 19, 10:10am EDT

Fri Apr 19, 9:10am EDT

Fri Apr 19, 8:10am EDT

Fri Apr 19, 7:10am EDT

Fri Apr 19, 6:10am EDT

Fri Apr 19, 5:10am EDT

Fri Apr 19, 4:10am EDT

Fri Apr 19, 3:10am EDT

Fri Apr 19, 2:10am EDT

Fri Apr 19, 1:10am EDT

Fri Apr 19, 12:10am EDT

Thu Apr 18, 11:10pm EDT

Thu Apr 18, 10:10pm EDT

Thu Apr 18, 9:10pm EDT

Thu Apr 18, 8:10pm EDT

Thu Apr 18, 7:10pm EDT

Thu Apr 18, 6:10pm EDT

Thu Apr 18, 5:10pm EDT

Thu Apr 18, 4:10pm EDT

Thu Apr 18, 3:10pm EDT

Thu Apr 18, 2:10pm EDT

Thu Apr 18, 1:10pm EDT

Thu Apr 18, 12:10pm EDT

Thu Apr 18, 11:10am EDT

Thu Apr 18, 10:10am EDT

Thu Apr 18, 9:10am EDT

Thu Apr 18, 8:10am EDT

Thu Apr 18, 7:10am EDT

Thu Apr 18, 6:10am EDT

Thu Apr 18, 5:10am EDT

Thu Apr 18, 4:10am EDT

Thu Apr 18, 3:10am EDT

Thu Apr 18, 2:10am EDT

Thu Apr 18, 1:10am EDT

Thu Apr 18, 12:10am EDT

Wed Apr 17, 11:10pm EDT

Wed Apr 17, 10:10pm EDT

Wed Apr 17, 9:10pm EDT

Wed Apr 17, 8:10pm EDT

Wed Apr 17, 7:10pm EDT

Wed Apr 17, 6:10pm EDT

Wed Apr 17, 5:10pm EDT

Wed Apr 17, 4:10pm EDT

Wed Apr 17, 3:10pm EDT

Wed Apr 17, 2:10pm EDT

Wed Apr 17, 1:10pm EDT

Wed Apr 17, 12:10pm EDT

Wed Apr 17, 11:10am EDT

Wed Apr 17, 10:10am EDT

Wed Apr 17, 9:10am EDT

Wed Apr 17, 8:10am EDT

Wed Apr 17, 7:10am EDT

Wed Apr 17, 6:10am EDT

Wed Apr 17, 5:10am EDT

Wed Apr 17, 4:10am EDT

Wed Apr 17, 3:10am EDT

Wed Apr 17, 2:10am EDT

Wed Apr 17, 1:10am EDT

Wed Apr 17, 12:10am EDT

Tue Apr 16, 11:10pm EDT

Tue Apr 16, 10:10pm EDT

Tue Apr 16, 9:10pm EDT

Tue Apr 16, 8:10pm EDT

Tue Apr 16, 7:10pm EDT

Tue Apr 16, 6:10pm EDT

Tue Apr 16, 5:10pm EDT

Tue Apr 16, 4:10pm EDT

Tue Apr 16, 3:10pm EDT

Tue Apr 16, 2:10pm EDT

Tue Apr 16, 1:10pm EDT

Tue Apr 16, 12:10pm EDT

Tue Apr 16, 11:10am EDT

Tue Apr 16, 10:10am EDT

Tue Apr 16, 9:10am EDT

Tue Apr 16, 8:10am EDT

Tue Apr 16, 7:10am EDT

Tue Apr 16, 6:10am EDT

Tue Apr 16, 5:10am EDT

Tue Apr 16, 4:10am EDT

Tue Apr 16, 3:10am EDT

Tue Apr 16, 2:10am EDT

Tue Apr 16, 1:10am EDT

Tue Apr 16, 12:10am EDT

Mon Apr 15, 11:10pm EDT

Mon Apr 15, 10:10pm EDT

Mon Apr 15, 9:10pm EDT

Mon Apr 15, 8:10pm EDT

Mon Apr 15, 7:10pm EDT

Mon Apr 15, 6:10pm EDT

Mon Apr 15, 5:10pm EDT

Mon Apr 15, 4:10pm EDT

Mon Apr 15, 3:10pm EDT

Mon Apr 15, 2:10pm EDT

Mon Apr 15, 1:10pm EDT

Mon Apr 15, 12:10pm EDT

Mon Apr 15, 11:10am EDT

Mon Apr 15, 10:10am EDT

Mon Apr 15, 9:10am EDT

Mon Apr 15, 8:10am EDT